JBU603 KJFK-CYVR

Flight info

Callsign JBU603
Flight time N/A
Altitude 32000
Route GAYEL J95 STOMP Q812 ARRKK Q140 PEPLA Q917 SSM DCT AGLIN/N0458F340 Q831 GABOV Q828 BOOTH VITEV5
Aircraft A321/M-SDE3FGHIRWY/LB1

Departure

Time 2026-05-04 14:48
Airport John F. Kennedy International Airport (KJFK)

Arrival

Time N/A
Airport Vancouver International Airport (CYVR)
Time Latitude Longitude Altitude Speed Heading
2026-05-04 14:15 40.64529 -73.77386 24 ft 0 kts 357°
2026-05-04 14:38 40.64515 -73.77385 24 ft 2 kts 357°
2026-05-04 14:39 40.64493 -73.77387 24 ft 4 kts 29°
2026-05-04 14:39 40.64476 -73.77411 25 ft 4 kts 65°
2026-05-04 14:39 40.64465 -73.77443 23 ft 4 kts 56°
2026-05-04 14:40 40.64436 -73.77471 24 ft 0 kts 30°
2026-05-04 14:42 40.64467 -73.77431 25 ft 9 kts 65°
2026-05-04 14:42 40.64472 -73.77344 24 ft 10 kts 88°
2026-05-04 14:42 40.64473 -73.77255 22 ft 10 kts 91°
2026-05-04 14:43 40.64447 -73.77175 23 ft 10 kts 116°
2026-05-04 14:43 40.64453 -73.77099 23 ft 9 kts 41°
2026-05-04 14:43 40.64515 -73.77096 22 ft 9 kts
2026-05-04 14:43 40.64575 -73.77087 21 ft 6 kts
2026-05-04 14:44 40.64601 -73.77084 22 ft 3 kts
2026-05-04 14:44 40.64620 -73.77087 22 ft 3 kts 348°
2026-05-04 14:44 40.64648 -73.77096 22 ft 5 kts 347°
2026-05-04 14:44 40.64697 -73.77131 22 ft 12 kts 317°
2026-05-04 14:45 40.64758 -73.77197 22 ft 8 kts 22°
2026-05-04 14:45 40.64805 -73.77110 23 ft 15 kts 55°
2026-05-04 14:45 40.64887 -73.76958 19 ft 24 kts 54°
2026-05-04 14:45 40.64910 -73.76830 21 ft 13 kts 119°
2026-05-04 14:46 40.64875 -73.76723 21 ft 13 kts 83°
2026-05-04 14:46 40.64938 -73.76652 21 ft 13 kts 30°
2026-05-04 14:46 40.65014 -73.76593 21 ft 13 kts 31°
2026-05-04 14:46 40.65089 -73.76533 22 ft 12 kts 33°
2026-05-04 14:47 40.65087 -73.76445 23 ft 10 kts 122°
2026-05-04 14:47 40.65051 -73.76373 23 ft 9 kts 134°
2026-05-04 14:47 40.64992 -73.76381 22 ft 10 kts 209°
2026-05-04 14:47 40.64842 -73.76499 21 ft 54 kts 211°
2026-05-04 14:48 40.64329 -73.76896 21 ft 115 kts 210°
2026-05-04 14:48 40.63490 -73.77553 28 ft 164 kts 211°
2026-05-04 14:48 40.62509 -73.78324 729 ft 157 kts 212°
2026-05-04 14:48 40.61551 -73.79053 1394 ft 166 kts 212°
2026-05-04 14:49 40.60480 -73.79849 1731 ft 188 kts 212°
2026-05-04 14:49 40.59237 -73.80686 2082 ft 214 kts 200°
2026-05-04 14:49 40.57677 -73.80741 2670 ft 242 kts 169°
2026-05-04 14:49 40.56160 -73.79612 3479 ft 263 kts 141°
2026-05-04 14:50 40.55138 -73.77526 4220 ft 283 kts 112°
2026-05-04 14:50 40.54865 -73.74878 4828 ft 309 kts 91°
2026-05-04 14:50 40.54980 -73.72017 5702 ft 306 kts 88°
2026-05-04 14:50 40.55199 -73.69245 6820 ft 305 kts 77°
2026-05-04 14:51 40.56063 -73.66715 7671 ft 305 kts 50°
2026-05-04 14:51 40.57591 -73.64868 8491 ft 301 kts 27°
2026-05-04 14:51 40.59523 -73.63886 9260 ft 296 kts
2026-05-04 14:51 40.61522 -73.63903 10009 ft 288 kts 342°
2026-05-04 14:52 40.63385 -73.64873 10703 ft 282 kts 322°
2026-05-04 14:52 40.65068 -73.66373 10920 ft 303 kts 321°
2026-05-04 14:52 40.66860 -73.68014 11050 ft 324 kts 321°
2026-05-04 14:52 40.68770 -73.69768 11249 ft 341 kts 321°
2026-05-04 14:53 40.70720 -73.71548 11765 ft 347 kts 322°
2026-05-04 14:53 40.72724 -73.73366 12429 ft 350 kts 322°
2026-05-04 14:53 40.74748 -73.75196 13050 ft 353 kts 322°
2026-05-04 14:53 40.76786 -73.77036 13726 ft 356 kts 322°
2026-05-04 14:54 40.78842 -73.78896 14321 ft 359 kts 322°
2026-05-04 14:54 40.80906 -73.80766 14921 ft 360 kts 322°
2026-05-04 14:54 40.82981 -73.82649 15534 ft 362 kts 321°
2026-05-04 14:54 40.85068 -73.84545 16188 ft 364 kts 321°
2026-05-04 14:55 40.87161 -73.86448 16794 ft 365 kts 321°
2026-05-04 14:55 40.89229 -73.88337 17313 ft 366 kts 321°
2026-05-04 14:55 40.91329 -73.90258 17838 ft 368 kts 321°
2026-05-04 14:55 40.93443 -73.92190 18332 ft 369 kts 321°
2026-05-04 14:56 40.95560 -73.94124 18751 ft 371 kts 321°
2026-05-04 14:56 40.97689 -73.96070 19179 ft 373 kts 321°
2026-05-04 14:56 40.99835 -73.98032 19592 ft 375 kts 321°
2026-05-04 14:56 41.02015 -74.00028 20008 ft 377 kts 322°
2026-05-04 14:57 41.04154 -74.01990 20395 ft 379 kts 322°
2026-05-04 14:57 41.06332 -74.03990 20789 ft 381 kts 322°
2026-05-04 14:57 41.08517 -74.06000 21182 ft 383 kts 322°
2026-05-04 14:57 41.10718 -74.08025 21562 ft 386 kts 322°
2026-05-04 14:58 41.12929 -74.10057 21947 ft 387 kts 322°
2026-05-04 14:58 41.15150 -74.12095 22324 ft 389 kts 322°
2026-05-04 14:58 41.17383 -74.14147 22694 ft 391 kts 322°
2026-05-04 14:58 41.18868 -74.15517 22936 ft 392 kts 322°
2026-05-04 14:59 41.21112 -74.17587 23284 ft 394 kts 322°
2026-05-04 14:59 41.23369 -74.19670 23628 ft 396 kts 323°
2026-05-04 14:59 41.27903 -74.23862 24219 ft 398 kts 323°
2026-05-04 15:00 41.30184 -74.25973 24517 ft 400 kts 323°
2026-05-04 15:00 41.32475 -74.28097 24816 ft 401 kts 323°
2026-05-04 15:00 41.34768 -74.30226 25111 ft 402 kts 323°
2026-05-04 15:01 41.39301 -74.34640 25692 ft 403 kts 316°
2026-05-04 15:01 41.41210 -74.37375 25958 ft 404 kts 308°
2026-05-04 15:01 41.42740 -74.40464 26211 ft 406 kts 301°
2026-05-04 15:01 41.44152 -74.43736 26479 ft 407 kts 301°
2026-05-04 15:02 41.45569 -74.47015 26742 ft 409 kts 301°
2026-05-04 15:02 41.46990 -74.50301 27001 ft 410 kts 301°
2026-05-04 15:02 41.48420 -74.53606 27246 ft 411 kts 301°
2026-05-04 15:02 41.49852 -74.56915 27506 ft 413 kts 301°
2026-05-04 15:03 41.51287 -74.60238 27740 ft 414 kts 301°
2026-05-04 15:03 41.52725 -74.63570 28005 ft 415 kts 301°
2026-05-04 15:03 41.54169 -74.66920 28239 ft 416 kts 301°
2026-05-04 15:03 41.55614 -74.70276 28488 ft 418 kts 301°
2026-05-04 15:04 41.57058 -74.73637 28860 ft 416 kts 301°
2026-05-04 15:04 41.58519 -74.76974 29247 ft 414 kts 304°
2026-05-04 15:04 41.60264 -74.80028 29632 ft 412 kts 313°
2026-05-04 15:04 41.62340 -74.82657 29986 ft 411 kts 320°
2026-05-04 15:05 41.64551 -74.85081 30286 ft 411 kts 320°
2026-05-04 15:05 41.66756 -74.87511 30555 ft 410 kts 319°
2026-05-04 15:05 41.68926 -74.89907 30813 ft 410 kts 319°
2026-05-04 15:05 41.71125 -74.92339 31068 ft 410 kts 319°
2026-05-04 15:06 41.73320 -74.94774 31321 ft 410 kts 319°
2026-05-04 15:06 41.75516 -74.97213 31571 ft 410 kts 319°
2026-05-04 15:06 41.77713 -74.99656 31810 ft 410 kts 319°
2026-05-04 15:07 41.82102 -75.04538 31961 ft 409 kts 319°
2026-05-04 15:07 41.86475 -75.09415 31950 ft 409 kts 319°
2026-05-04 15:08 41.90852 -75.14299 31941 ft 409 kts 319°
2026-05-04 15:08 41.95228 -75.19187 31946 ft 409 kts 319°
2026-05-04 15:09 41.99595 -75.24078 31943 ft 409 kts 319°
2026-05-04 15:09 42.03960 -75.28979 31938 ft 409 kts 319°
2026-05-04 15:10 42.07736 -75.34644 31958 ft 408 kts 302°
2026-05-04 15:10 42.09229 -75.37891 31949 ft 408 kts 302°
2026-05-04 15:11 42.13744 -75.47589 31942 ft 406 kts 303°
2026-05-04 15:11 42.16744 -75.54034 31938 ft 405 kts 302°
2026-05-04 15:12 42.19730 -75.60476 31932 ft 404 kts 302°
2026-05-04 15:12 42.22696 -75.66921 31925 ft 404 kts 302°
2026-05-04 15:13 42.25655 -75.73362 31926 ft 404 kts 302°
2026-05-04 15:13 42.28628 -75.79827 31901 ft 410 kts 302°
2026-05-04 15:14 42.31669 -75.86443 31905 ft 419 kts 302°
2026-05-04 15:14 42.34742 -75.93153 31897 ft 421 kts 302°
2026-05-04 15:15 42.37816 -75.99893 31885 ft 420 kts 302°
2026-05-04 15:15 42.40880 -76.06627 31896 ft 420 kts 302°
2026-05-04 15:16 42.45481 -76.16749 31882 ft 421 kts 302°
2026-05-04 15:17 42.50058 -76.26884 31897 ft 420 kts 302°
2026-05-04 15:17 42.54637 -76.37017 31898 ft 420 kts 302°
2026-05-04 15:18 42.57682 -76.43776 31897 ft 419 kts 302°
2026-05-04 15:19 42.62239 -76.53917 31891 ft 419 kts 302°
2026-05-04 15:19 42.66757 -76.64027 31908 ft 418 kts 302°
2026-05-04 15:20 42.69770 -76.70790 31899 ft 418 kts 302°
2026-05-04 15:20 42.72777 -76.77553 31889 ft 417 kts 302°
2026-05-04 15:21 42.75784 -76.84317 31880 ft 417 kts 302°
2026-05-04 15:22 42.80287 -76.94473 31862 ft 417 kts 302°
2026-05-04 15:22 42.84766 -77.04644 31869 ft 417 kts 301°
2026-05-04 15:23 42.87741 -77.11426 31862 ft 417 kts 301°
2026-05-04 15:23 42.90717 -77.18214 31852 ft 417 kts 301°
2026-05-04 15:24 42.96538 -77.31843 31851 ft 417 kts 301°
2026-05-04 15:25 42.99446 -77.38695 31846 ft 417 kts 301°
2026-05-04 15:26 43.03812 -77.48972 31842 ft 417 kts 301°
2026-05-04 15:26 43.08179 -77.59262 31838 ft 417 kts 301°
2026-05-04 15:27 43.12532 -77.69569 31838 ft 417 kts 301°
2026-05-04 15:28 43.16869 -77.79883 31840 ft 417 kts 300°
2026-05-04 15:29 43.21192 -77.90219 31845 ft 416 kts 300°
2026-05-04 15:30 43.31065 -78.14407 31827 ft 416 kts 293°
2026-05-04 15:31 43.34272 -78.25498 31822 ft 417 kts 293°
2026-05-04 15:32 43.39637 -78.43999 31814 ft 416 kts 293°
2026-05-04 15:34 43.44945 -78.62542 31815 ft 417 kts 293°
2026-05-04 15:34 43.48121 -78.73675 31821 ft 417 kts 292°
2026-05-04 15:35 43.51306 -78.84827 31818 ft 417 kts 292°
2026-05-04 15:36 43.54467 -78.95995 31813 ft 417 kts 292°
2026-05-04 15:36 43.56557 -79.03407 31805 ft 417 kts 292°
2026-05-04 15:37 43.58663 -79.10878 31788 ft 417 kts 292°
2026-05-04 15:37 43.60763 -79.18379 31771 ft 418 kts 292°
2026-05-04 15:38 43.62856 -79.25883 31775 ft 418 kts 292°
2026-05-04 15:38 43.64940 -79.33388 31781 ft 419 kts 292°
2026-05-04 15:39 43.66551 -79.39701 31782 ft 419 kts 289°
2026-05-04 15:40 43.69007 -79.51309 31766 ft 420 kts 288°
2026-05-04 15:40 43.70631 -79.59062 31771 ft 420 kts 288°
2026-05-04 15:41 43.72298 -79.66798 31772 ft 420 kts 288°
2026-05-04 15:41 43.73983 -79.74541 31776 ft 420 kts 288°
2026-05-04 15:42 43.75655 -79.82282 31777 ft 420 kts 288°
2026-05-04 15:42 43.77310 -79.90029 31777 ft 419 kts 288°
2026-05-04 15:43 43.78995 -79.97741 31793 ft 417 kts 292°
2026-05-04 15:43 43.81899 -80.04555 31784 ft 413 kts 310°
2026-05-04 15:44 43.85861 -80.10298 31781 ft 412 kts 313°
2026-05-04 15:44 43.89825 -80.16026 31773 ft 411 kts 312°
2026-05-04 15:45 43.93758 -80.21739 31755 ft 411 kts 312°
2026-05-04 15:45 43.97727 -80.27512 31752 ft 411 kts 312°
2026-05-04 15:46 44.01671 -80.33255 31767 ft 411 kts 312°
2026-05-04 15:46 44.05584 -80.38965 31758 ft 410 kts 312°
2026-05-04 15:47 44.09516 -80.44717 31752 ft 410 kts 312°
2026-05-04 15:47 44.13450 -80.50476 31746 ft 410 kts 312°
2026-05-04 15:48 44.17372 -80.56243 31732 ft 410 kts 312°
2026-05-04 15:48 44.23249 -80.64901 31752 ft 410 kts 312°
2026-05-04 15:49 44.27170 -80.70681 31745 ft 409 kts 312°
2026-05-04 15:49 44.31068 -80.76453 31735 ft 408 kts 312°
2026-05-04 15:50 44.34965 -80.82225 31727 ft 408 kts 312°
2026-05-04 15:50 44.38837 -80.87970 31725 ft 408 kts 311°
2026-05-04 15:51 44.42723 -80.93755 31710 ft 408 kts 311°
2026-05-04 15:51 44.46601 -80.99542 31704 ft 408 kts 311°
2026-05-04 15:52 44.50477 -81.05341 31693 ft 408 kts 311°
2026-05-04 15:52 44.54357 -81.11145 31689 ft 408 kts 311°
2026-05-04 15:53 44.58227 -81.16950 31685 ft 407 kts 311°
2026-05-04 15:53 44.62089 -81.22775 31683 ft 407 kts 311°
2026-05-04 15:54 44.65954 -81.28607 31680 ft 407 kts 311°
2026-05-04 15:54 44.69815 -81.34431 31701 ft 407 kts 310°
2026-05-04 15:55 44.73676 -81.40259 31698 ft 407 kts 310°
2026-05-04 15:55 44.77510 -81.46059 31696 ft 407 kts 310°
2026-05-04 15:56 44.81384 -81.51941 31701 ft 407 kts 310°
2026-05-04 15:56 44.85206 -81.57754 31701 ft 407 kts 310°
2026-05-04 15:57 44.89053 -81.63623 31702 ft 408 kts 310°
2026-05-04 15:57 44.92903 -81.69505 31692 ft 408 kts 310°
2026-05-04 15:58 44.96751 -81.75389 31679 ft 408 kts 310°
2026-05-04 15:58 45.00604 -81.81293 31676 ft 408 kts 310°
2026-05-04 15:59 45.04445 -81.87201 31674 ft 408 kts 310°
2026-05-04 15:59 45.08256 -81.93078 31674 ft 408 kts 310°
2026-05-04 16:00 45.12090 -81.99005 31682 ft 408 kts 310°
2026-05-04 16:00 45.15732 -82.04633 31669 ft 408 kts 310°
2026-05-04 16:01 45.19589 -82.10608 31680 ft 408 kts 309°
2026-05-04 16:01 45.23394 -82.16513 31679 ft 408 kts 309°
2026-05-04 16:02 45.27237 -82.22510 31677 ft 408 kts 309°
2026-05-04 16:03 45.32938 -82.31429 31676 ft 408 kts 309°
2026-05-04 16:03 45.36762 -82.37409 31670 ft 408 kts 309°
2026-05-04 16:04 45.40559 -82.43419 31657 ft 407 kts 307°
2026-05-04 16:04 45.45851 -82.52874 31650 ft 406 kts 304°
2026-05-04 16:05 45.49299 -82.59252 31652 ft 406 kts 305°
2026-05-04 16:06 45.54510 -82.68704 31657 ft 406 kts 305°
2026-05-04 16:07 45.61501 -82.81343 31625 ft 405 kts 304°
2026-05-04 16:08 45.68453 -82.94004 31623 ft 405 kts 304°
2026-05-04 16:09 45.77117 -83.09850 31599 ft 404 kts 304°
2026-05-04 16:10 45.84008 -83.22524 31581 ft 404 kts 304°
2026-05-04 16:11 45.90912 -83.35259 31588 ft 404 kts 303°
2026-05-04 16:12 46.01222 -83.54437 31563 ft 404 kts 303°
2026-05-04 16:13 46.08061 -83.67210 31544 ft 403 kts 302°
2026-05-04 16:14 46.14901 -83.80056 31536 ft 403 kts 302°
2026-05-04 16:16 46.23436 -83.96151 31551 ft 403 kts 302°
2026-05-04 16:17 46.31875 -84.12246 31537 ft 400 kts 300°
2026-05-04 16:18 46.38257 -84.25391 31523 ft 399 kts 299°
2026-05-04 16:19 46.45514 -84.42382 31477 ft 393 kts 294°
2026-05-04 16:20 46.52274 -84.59619 31470 ft 393 kts 294°
2026-05-04 16:22 46.59013 -84.76882 31472 ft 394 kts 294°
2026-05-04 16:23 46.66614 -84.96544 31459 ft 393 kts 294°
2026-05-04 16:25 46.74632 -85.17390 31460 ft 392 kts 293°
2026-05-04 16:26 46.83860 -85.41632 31453 ft 390 kts 293°
2026-05-04 16:28 46.90416 -85.58953 31435 ft 387 kts 292°
2026-05-04 16:29 46.99486 -85.83113 31431 ft 388 kts 292°
2026-05-04 16:31 47.05949 -86.00492 31458 ft 387 kts 291°
2026-05-04 16:32 47.13636 -86.21282 31425 ft 387 kts 291°
2026-05-04 16:33 47.18760 -86.35230 31412 ft 389 kts 291°
2026-05-04 16:34 47.22617 -86.45772 31407 ft 391 kts 291°
2026-05-04 16:35 47.30319 -86.66954 31416 ft 392 kts 290°
2026-05-04 16:36 47.34168 -86.77612 31475 ft 392 kts 290°
2026-05-04 16:37 47.38025 -86.88366 31383 ft 397 kts 290°
2026-05-04 16:38 47.43193 -87.02755 31374 ft 399 kts 290°
2026-05-04 16:39 47.49665 -87.20963 31373 ft 402 kts 291°
2026-05-04 16:40 47.54866 -87.35646 31365 ft 403 kts 291°
2026-05-04 16:41 47.61376 -87.54205 31351 ft 411 kts 292°
2026-05-04 16:43 47.67973 -87.73088 31348 ft 414 kts 292°
2026-05-04 16:43 47.71925 -87.84492 31349 ft 414 kts 292°
2026-05-04 16:45 47.79820 -88.07389 31373 ft 417 kts 292°
2026-05-04 16:46 47.86397 -88.26647 31364 ft 417 kts 292°
2026-05-04 16:47 47.91630 -88.42047 31358 ft 417 kts 293°
2026-05-04 16:48 47.96849 -88.57514 31351 ft 417 kts 292°
2026-05-04 16:49 48.02045 -88.72998 31335 ft 417 kts 293°
2026-05-04 16:50 48.07197 -88.88458 31326 ft 417 kts 293°
2026-05-04 16:51 48.11075 -89.00117 31334 ft 417 kts 293°
2026-05-04 16:52 48.16234 -89.15754 31338 ft 417 kts 293°
2026-05-04 16:53 48.20056 -89.27399 31331 ft 416 kts 293°
2026-05-04 16:54 48.25151 -89.43026 31309 ft 414 kts 292°
2026-05-04 16:55 48.32047 -89.66689 31319 ft 414 kts 290°
2026-05-04 16:56 48.37772 -89.86577 31337 ft 414 kts 290°
2026-05-04 16:57 48.41215 -89.98526 31341 ft 415 kts 290°
2026-05-04 16:58 48.45767 -90.14529 31334 ft 416 kts 290°
2026-05-04 17:00 48.52565 -90.38611 31341 ft 417 kts 290°
2026-05-04 17:01 48.58222 -90.58828 31338 ft 419 kts 290°
2026-05-04 17:02 48.62738 -90.75102 31357 ft 420 kts 290°
2026-05-04 17:03 48.66106 -90.87324 31403 ft 421 kts 290°
2026-05-04 17:03 48.69481 -90.99616 31380 ft 422 kts 290°
2026-05-04 17:04 48.72468 -91.10548 31383 ft 422 kts 290°